Location: Carnetin
(48.9010°N, 2.7059°E)
Time: 03:41:37
(UTC+00:00)

USA 229 - Pass Details

Date: 30 May 2022
Orbit: 938 x 1274 km, 63.4° (Epoch: 24 May)

Event Time Altitude Azimuth Distance (km) Brightness Sun altitude
Rises 23:07:09 0° 317° (NW) 3,950 7.6 -18.7°
Reaches altitude 10° 23:09:45 10° 317° (NW) 3,035 6.9 -18.7°
Maximum altitude 23:17:05 79° 232° (SW) 1,229 3.9 -18.9°
Enters shadow 23:21:57 25° 150° (SSE) 2,248 4.9 -19.0°
